The Dalles, WA

4:47 PM PDT on July 27, 2017 (GMT -0700)
Columbia Gorge Regional-The Dalles

Weather History for KDLS - July, 2013

Change the Weather History Date:

Monday, July 22, 2013

  Actual Average Record
Temperature  
Mean Temperature 78 °F -  
Max Temperature 91 °F 89 °F 105 °F (1978)
Min Temperature 66 °F 60 °F 48 °F (1952)
Cooling Degree Days 14    
Growing Degree Days 28 (Base 50)    
Moisture  
Dew Point 52 °F    
Average Humidity 42    
Maximum Humidity 63    
Minimum Humidity 22    
Precipitation  
Precipitation 0.00 in - - ()
Sea Level Pressure  
Sea Level Pressure 29.85 in    
Wind  
Wind Speed 12 mph (NW)    
Max Wind Speed 26 mph    
Max Gust Speed 33 mph    
Visibility 10 miles    
Events      
Averages and records for this station are not official NWS values.
T = Trace of Precipitation, MM = Missing Value Source: NWS Daily Summary

Daily Weather History Graph

Daily Weather History Graph

Search for Another Location

Airport or City:

Trip Planner

Search our weather history database for the weather conditions in past years. The results will help you decide how hot, cold, wet, or windy it might be!

Date:

Astronomy

Jul. 22, 2013 Rise Set
Actual Time 5:37 AM PDT 8:44 PM PDT
Civil Twilight 5:01 AM PDT 9:19 PM PDT
Nautical Twilight 4:15 AM PDT 10:05 PM PDT
Astronomical Twilight 3:19 AM PDT 11:00 PM PDT
Moon 8:28 PM PDT (7/22) 5:43 AM PDT (7/22)
Length of Visible Light 16h 17m
Length of Day
15h 06m
Full, 100% of the Moon is Illuminated
Jul 22
Full
Jul 29
Last Quarter
Aug 6
New
Aug 14
First Quarter
Aug 20
Full

Hourly Weather History & Observations

Time (PDT) Temp. Heat Index Dew Point Humidity Pressure Visibility Wind Dir Wind Speed Gust Speed Precip Events Conditions
12:53 AM 75.0 °F - 50.0 °F 41% 29.81 in 10.0 mi WNW 10.4 mph 20.7 mph N/A   Clear
1:53 AM 73.0 °F - 54.0 °F 51% 29.81 in 10.0 mi NW 11.5 mph 23.0 mph N/A   Clear
2:53 AM 72.0 °F - 54.0 °F 53% 29.82 in 10.0 mi West 12.7 mph 18.4 mph N/A   Clear
3:53 AM 70.0 °F - 53.1 °F 55% 29.84 in 10.0 mi Calm Calm - N/A   Clear
4:53 AM 66.9 °F - 52.0 °F 59% 29.84 in 10.0 mi Calm Calm - N/A   Clear
5:53 AM 68.0 °F - 54.0 °F 61% 29.86 in 10.0 mi North 4.6 mph - N/A   Clear
6:53 AM 66.9 °F - 54.0 °F 63% 29.87 in 10.0 mi Variable 5.8 mph - N/A   Clear
7:53 AM 70.0 °F - 54.0 °F 57% 29.88 in 10.0 mi Calm Calm - N/A   Clear
8:53 AM 73.0 °F - 53.1 °F 49% 29.89 in 10.0 mi Variable 5.8 mph - N/A   Clear
9:53 AM 77.0 °F - 53.1 °F 43% 29.89 in 10.0 mi NNW 16.1 mph 23.0 mph N/A   Clear
10:53 AM 78.1 °F - 54.0 °F 43% 29.88 in 10.0 mi NNW 20.7 mph 29.9 mph N/A   Clear
11:53 AM 82.9 °F - 52.0 °F 34% 29.88 in 10.0 mi NNW 23.0 mph 32.2 mph N/A   Clear
12:53 PM 86.0 °F - 50.0 °F 29% 29.87 in 10.0 mi NNW 20.7 mph 31.1 mph N/A   Clear
1:53 PM 88.0 °F - 50.0 °F 27% 29.86 in 10.0 mi NNW 26.5 mph 31.1 mph N/A   Clear
2:53 PM 90.0 °F - 48.0 °F 24% 29.86 in 10.0 mi NNW 23.0 mph 29.9 mph N/A   Clear
3:53 PM 91.0 °F - 46.9 °F 22% 29.84 in 10.0 mi NNW 20.7 mph 27.6 mph N/A   Clear
4:53 PM 89.1 °F - 50.0 °F 26% 29.83 in 10.0 mi NNW 25.3 mph 33.4 mph N/A   Clear
5:53 PM 88.0 °F - 52.0 °F 29% 29.82 in 10.0 mi NW 19.6 mph 29.9 mph N/A   Clear
6:53 PM 87.1 °F - 50.0 °F 28% 29.81 in 10.0 mi NW 19.6 mph 33.4 mph N/A   Clear
7:53 PM 82.9 °F 81.8 °F 53.1 °F 36% 29.82 in 10.0 mi NW 19.6 mph 26.5 mph N/A   Clear
8:53 PM 80.1 °F 79.9 °F 53.1 °F 39% 29.83 in 10.0 mi West 6.9 mph - N/A   Clear
9:53 PM 78.1 °F - 53.1 °F 42% 29.86 in 10.0 mi NNW 17.3 mph - N/A   Clear
10:53 PM 75.0 °F - 54.0 °F 48% 29.88 in 10.0 mi North 13.8 mph 21.9 mph N/A   Clear
11:53 PM 73.9 °F - 55.0 °F 52% 29.88 in 10.0 mi NNW 17.3 mph 25.3 mph N/A   Clear